RYR36GC LPPR-LEPA

Flight info

Callsign RYR36GC
Flight time N/A
Altitude 31000
Route PESUL DCT RIVRO DCT BARDI/N0453F320 M191 DIPOL/N0451F340 M871 NVS/N0453F350 DCT NANDO DCT MINGU DCT ABOSI DCT MABUX DCT RETBA DCT MOPIR DCT LASPO/N0419F260 M871 GODOX
Aircraft B738/M-SDE2E3FGHIRWXY/LB1

Departure

Time N/A
Airport Francisco de Sá Carneiro Airport (LPPR)

Arrival

Time 2026-05-05 11:37
Airport Palma de Mallorca Airport (LEPA)
Time Latitude Longitude Altitude Speed Heading
2026-05-05 11:06 39.35311 -0.70222 34932 ft 494 kts 128°
2026-05-05 11:06 39.31921 -0.62559 34930 ft 489 kts 128°
2026-05-05 11:07 39.29144 -0.54482 34938 ft 502 kts 110°
2026-05-05 11:07 39.28566 -0.50061 34929 ft 509 kts 99°
2026-05-05 11:07 39.28577 -0.45470 34936 ft 513 kts 90°
2026-05-05 11:08 39.29149 -0.36285 34932 ft 512 kts 89°
2026-05-05 11:08 39.29732 -0.27118 34933 ft 511 kts 89°
2026-05-05 11:09 39.30233 -0.17972 34936 ft 510 kts 90°
2026-05-05 11:09 39.30694 -0.08830 34935 ft 511 kts 90°
2026-05-05 11:10 39.31142 0.00204 34916 ft 511 kts 91°
2026-05-05 11:10 39.31588 0.09249 34934 ft 511 kts 91°
2026-05-05 11:11 39.32034 0.18410 34946 ft 511 kts 91°
2026-05-05 11:11 39.32473 0.27592 34623 ft 516 kts 91°
2026-05-05 11:11 39.32692 0.32223 34038 ft 516 kts 91°
2026-05-05 11:12 39.32836 0.35289 33592 ft 516 kts 91°
2026-05-05 11:12 39.33054 0.39919 32862 ft 516 kts 91°
2026-05-05 11:12 39.33269 0.44561 32213 ft 516 kts 91°
2026-05-05 11:12 39.33480 0.49185 31512 ft 517 kts 91°
2026-05-05 11:13 39.33689 0.53825 30829 ft 517 kts 91°
2026-05-05 11:13 39.33896 0.58446 30343 ft 513 kts 91°
2026-05-05 11:13 39.35063 0.85045 27158 ft 490 kts 91°
2026-05-05 11:13 39.35601 0.97676 25736 ft 478 kts 91°
2026-05-05 11:14 39.35766 1.01775 25274 ft 474 kts 91°
2026-05-05 11:14 39.35934 1.06018 24799 ft 471 kts 91°
2026-05-05 11:14 39.36101 1.10230 24290 ft 468 kts 91°
2026-05-05 11:14 39.36267 1.14424 23798 ft 465 kts 90°
2026-05-05 11:15 39.36430 1.18542 23268 ft 463 kts 90°
2026-05-05 11:15 39.36593 1.22673 22721 ft 459 kts 90°
2026-05-05 11:15 39.36753 1.26774 22206 ft 455 kts 90°
2026-05-05 11:15 39.36910 1.30832 21719 ft 450 kts 90°
2026-05-05 11:16 39.37065 1.34855 21242 ft 446 kts 90°
2026-05-05 11:16 39.37217 1.38840 20753 ft 442 kts 90°
2026-05-05 11:16 39.37412 1.42794 20316 ft 439 kts 86°
2026-05-05 11:16 39.37835 1.46682 19908 ft 435 kts 83°
2026-05-05 11:17 39.38372 1.50520 19449 ft 432 kts 81°
2026-05-05 11:17 39.38931 1.54308 18972 ft 430 kts 81°
2026-05-05 11:17 39.39482 1.58106 18494 ft 428 kts 82°
2026-05-05 11:17 39.40010 1.61888 17980 ft 426 kts 82°
2026-05-05 11:18 39.40515 1.65645 17474 ft 423 kts 82°
2026-05-05 11:18 39.41006 1.69377 16997 ft 419 kts 82°
2026-05-05 11:18 39.41485 1.73078 16527 ft 415 kts 82°
2026-05-05 11:18 39.41952 1.76701 16071 ft 412 kts 82°
2026-05-05 11:19 39.42419 1.80336 15609 ft 408 kts 82°
2026-05-05 11:19 39.42881 1.83942 15166 ft 404 kts 82°
2026-05-05 11:19 39.43338 1.87516 14732 ft 401 kts 82°
2026-05-05 11:19 39.43789 1.91045 14480 ft 392 kts 82°
2026-05-05 11:20 39.44227 1.94469 14311 ft 381 kts 82°
2026-05-05 11:20 39.44652 1.97807 14152 ft 371 kts 82°
2026-05-05 11:20 39.45049 2.00934 14019 ft 362 kts 83°
2026-05-05 11:20 39.45521 2.04092 13839 ft 355 kts 76°
2026-05-05 11:21 39.46253 2.07110 13654 ft 348 kts 72°
2026-05-05 11:21 39.47066 2.10032 13446 ft 342 kts 71°
2026-05-05 11:21 39.47877 2.12900 13259 ft 337 kts 71°
2026-05-05 11:21 39.48667 2.15751 13076 ft 335 kts 71°
2026-05-05 11:22 39.49437 2.18592 12904 ft 333 kts 72°
2026-05-05 11:22 39.50190 2.21413 12721 ft 331 kts 72°
2026-05-05 11:22 39.50924 2.24194 12546 ft 330 kts 72°
2026-05-05 11:22 39.51660 2.26999 12366 ft 328 kts 72°
2026-05-05 11:23 39.52392 2.29794 12184 ft 327 kts 72°
2026-05-05 11:23 39.53117 2.32568 12011 ft 325 kts 72°
2026-05-05 11:23 39.53840 2.35342 11842 ft 323 kts 72°
2026-05-05 11:23 39.54558 2.38094 11671 ft 322 kts 72°
2026-05-05 11:24 39.55429 2.40743 11490 ft 321 kts 59°
2026-05-05 11:24 39.56664 2.43150 11329 ft 320 kts 55°
2026-05-05 11:24 39.57943 2.45499 11147 ft 318 kts 54°
2026-05-05 11:24 39.59225 2.47828 10996 ft 316 kts 54°
2026-05-05 11:25 39.60497 2.50154 10828 ft 316 kts 54°
2026-05-05 11:25 39.61756 2.52481 10648 ft 315 kts 55°
2026-05-05 11:25 39.63002 2.54804 10491 ft 313 kts 55°
2026-05-05 11:25 39.64240 2.57126 10294 ft 313 kts 55°
2026-05-05 11:26 39.65469 2.59440 10150 ft 308 kts 55°
2026-05-05 11:26 39.66674 2.61715 9969 ft 302 kts 55°
2026-05-05 11:26 39.67851 2.63942 9802 ft 297 kts 56°
2026-05-05 11:26 39.69001 2.66121 9632 ft 292 kts 56°
2026-05-05 11:27 39.70145 2.68291 9464 ft 292 kts 57°
2026-05-05 11:27 39.71295 2.70475 9315 ft 294 kts 56°
2026-05-05 11:27 39.72459 2.72683 9147 ft 296 kts 56°
2026-05-05 11:27 39.73604 2.74858 8990 ft 295 kts 56°
2026-05-05 11:28 39.74762 2.77060 8814 ft 295 kts 56°
2026-05-05 11:28 39.75923 2.79269 8527 ft 297 kts 56°
2026-05-05 11:28 39.77074 2.81514 8100 ft 299 kts 63°
2026-05-05 11:28 39.77639 2.84081 7712 ft 299 kts 89°
2026-05-05 11:29 39.77339 2.86726 7331 ft 296 kts 109°
2026-05-05 11:29 39.76664 2.89254 6944 ft 297 kts 113°
2026-05-05 11:29 39.75946 2.91785 6553 ft 299 kts 112°
2026-05-05 11:29 39.75207 2.94318 6169 ft 301 kts 113°
2026-05-05 11:30 39.74453 2.96856 5756 ft 301 kts 113°
2026-05-05 11:30 39.73707 2.99400 5370 ft 302 kts 114°
2026-05-05 11:30 39.72998 3.01845 4972 ft 300 kts 113°
2026-05-05 11:30 39.72171 3.04276 4534 ft 289 kts 127°
2026-05-05 11:31 39.70756 3.06008 4110 ft 274 kts 155°
2026-05-05 11:31 39.68969 3.06520 3704 ft 261 kts 188°
2026-05-05 11:31 39.67376 3.05623 3430 ft 247 kts 223°
2026-05-05 11:31 39.66546 3.03775 3244 ft 236 kts 252°
2026-05-05 11:32 39.66159 3.01753 3070 ft 226 kts 254°
2026-05-05 11:32 39.65780 2.99788 2857 ft 223 kts 253°
2026-05-05 11:32 39.65421 2.97898 2718 ft 214 kts 253°
2026-05-05 11:32 39.64926 2.96129 2534 ft 203 kts 242°
2026-05-05 11:33 39.64250 2.94594 2491 ft 188 kts 238°
2026-05-05 11:33 39.63587 2.93199 2482 ft 174 kts 237°
2026-05-05 11:33 39.62979 2.91918 2482 ft 161 kts 236°
2026-05-05 11:33 39.62396 2.90689 2479 ft 159 kts 236°
2026-05-05 11:34 39.61801 2.89436 2348 ft 167 kts 237°
2026-05-05 11:34 39.61194 2.88151 2135 ft 166 kts 236°
2026-05-05 11:34 39.60600 2.86891 1923 ft 161 kts 235°
2026-05-05 11:34 39.60042 2.85711 1729 ft 154 kts 236°
2026-05-05 11:35 39.59485 2.84529 1537 ft 144 kts 236°
2026-05-05 11:35 39.58989 2.83481 1354 ft 132 kts 236°
2026-05-05 11:35 39.58531 2.82511 1210 ft 123 kts 236°
2026-05-05 11:35 39.58080 2.81561 1036 ft 123 kts 236°
2026-05-05 11:36 39.57640 2.80620 944 ft 126 kts 236°
2026-05-05 11:36 39.57167 2.79628 728 ft 126 kts 237°
2026-05-05 11:36 39.56708 2.78650 547 ft 133 kts 239°
2026-05-05 11:36 39.56235 2.77636 378 ft 127 kts 237°
2026-05-05 11:37 39.55790 2.76689 169 ft 121 kts 238°
2026-05-05 11:37 39.55340 2.75735 34 ft 121 kts 238°
2026-05-05 11:37 39.54957 2.74926 29 ft 85 kts 239°
2026-05-05 11:37 39.54810 2.74463 29 ft 31 kts 265°
2026-05-05 11:38 39.54803 2.74282 29 ft 14 kts 268°
2026-05-05 11:38 39.54808 2.74164 29 ft 12 kts 283°